Worland, WY

1:02 PM MDT on September 18, 2019 (GMT -0600)
Worland Municipal

Weather History for KWRL - August, 2019

Change the Weather History Date:

Monday, August 19, 2019

  Actual Average Record
Temperature  
Mean Temperature 73 °F 70 °F  
Max Temperature 97 °F 87 °F 98 °F (1988)
Min Temperature 49 °F 52 °F 41 °F (2015)
Degree Days  
Heating Degree Days 0 1  
Month to date heating degree days 0 3  
Since 1 June heating degree days 108 109  
Since 1 July heating degree days 4 16  
Cooling Degree Days 8 5  
Month to date cooling degree days 147 132  
Year to date cooling degree days 405 457  
Since 1 June cooling degree days 405 445  
Growing Degree Days 22 (Base 50)    
Moisture  
Dew Point 40 °F    
Average Humidity 41    
Maximum Humidity 71    
Minimum Humidity 10    
Precipitation  
Precipitation 0.00 in 0.01 in 0.12 in (2007)
Month to date precipitation 0.37 0.27  
Year to date precipitation 7.86 5.29  
Sea Level Pressure  
Sea Level Pressure 29.81 in    
Wind  
Wind Speed 4 mph (WNW)    
Max Wind Speed 36 mph    
Max Gust Speed 44 mph    
Visibility 10 miles    
Events      
T = Trace of Precipitation, MM = Missing Value Source: NWS Daily Summary

Daily Weather History Graph

Daily Weather History Graph

Search for Another Location

Airport or City:

Astronomy

Aug. 19, 2019 Rise Set
Actual Time 6:20 AM MDT 8:09 PM MDT
Civil Twilight 5:49 AM MDT 8:40 PM MDT
Nautical Twilight 5:11 AM MDT 9:18 PM MDT
Astronomical Twilight 4:30 AM MDT 9:58 PM MDT
Moon 10:24 PM MDT (8/19) 10:11 AM MDT (8/19)
Length of Visible Light 14h 51m
Length of Day
13h 49m
Waning Gibbous, 85% of the Moon is Illuminated
Aug 19
Waning Gibbous
Aug 23
Last Quarter
Aug 30
New
Sep 5
First Quarter
Sep 13
Full

Hourly Weather History & Observations

Time (MDT) Temp. Dew Point Humidity Pressure Visibility Wind Dir Wind Speed Gust Speed Precip Events Conditions
12:53 AM 62.1 °F 39.9 °F 44% 29.79 in 10.0 mi South 9.2 mph - N/A   Clear
1:53 AM 57.9 °F 37.9 °F 47% 29.78 in 10.0 mi Calm Calm - N/A   Clear
2:53 AM 54.0 °F 39.0 °F 57% 29.79 in 10.0 mi South 6.9 mph - N/A   Clear
3:53 AM 57.0 °F 37.0 °F 47% 29.78 in 10.0 mi South 6.9 mph - N/A   Clear
4:53 AM 48.9 °F 39.0 °F 69% 29.82 in 10.0 mi Calm Calm - N/A   Clear
5:53 AM 52.0 °F 43.0 °F 71% 29.81 in 10.0 mi Calm Calm - N/A   Clear
6:53 AM 52.0 °F 39.9 °F 63% 29.85 in 10.0 mi Calm Calm - N/A   Clear
7:05 AM 52.0 °F 41.0 °F 66% 29.96 in 10.0 mi WSW 3.5 mph - N/A   Partly Cloudy
7:53 AM 61.0 °F 39.9 °F 46% 29.85 in 10.0 mi Calm Calm - N/A   Clear
8:01 AM 61.0 °F 37.9 °F 42% 29.96 in 10.0 mi West 3.5 mph - N/A   Partly Cloudy
8:53 AM 66.0 °F 43.0 °F 43% 29.86 in 10.0 mi WSW 3.5 mph - N/A   Clear
9:53 AM 75.9 °F 48.0 °F 37% 29.85 in 10.0 mi WNW 3.5 mph - N/A   Clear
10:53 AM 82.9 °F 44.1 °F 25% 29.85 in 10.0 mi NW 4.6 mph - N/A   Clear
11:53 AM 89.1 °F 39.9 °F 18% 29.83 in 10.0 mi North 5.8 mph - N/A   Clear
12:53 PM 93.9 °F 37.9 °F 14% 29.79 in 10.0 mi NE 6.9 mph - N/A   Clear
1:53 PM 95.0 °F 35.1 °F 12% 29.78 in 10.0 mi NNE 5.8 mph - N/A   Clear
2:53 PM 91.0 °F 35.1 °F 14% 29.79 in 10.0 mi Variable 6.9 mph - N/A   Clear
3:53 PM 95.0 °F 34.0 °F 12% 29.75 in 10.0 mi WSW 4.6 mph - N/A   Clear
4:53 PM 97.0 °F 32.0 °F 10% 29.76 in 10.0 mi NW 6.9 mph - N/A   Clear
5:53 PM 95.0 °F 30.0 °F 10% 29.75 in 10.0 mi Calm Calm - N/A   Clear
6:53 PM 88.0 °F 46.9 °F 24% 29.76 in 10.0 mi NE 5.8 mph - N/A   Clear
7:53 PM 79.0 °F 44.1 °F 29% 29.77 in 10.0 mi ENE 4.6 mph - N/A   Clear
8:53 PM 71.1 °F 36.0 °F 28% 29.80 in 10.0 mi East 3.5 mph - N/A   Clear
9:53 PM 71.1 °F 46.9 °F 42% 29.81 in 10.0 mi Variable 3.5 mph - N/A   Clear
10:53 PM 75.0 °F 42.1 °F 31% 29.80 in 10.0 mi East 5.8 mph - N/A   Clear
11:53 PM 71.1 °F 44.1 °F 38% 29.82 in 10.0 mi West 5.8 mph - N/A   Clear